Weather in Lipovka

Russia / Tambov Oblast     52°33′22″N   42°01′40″E
temp.,
°C
wind,
m/s
gust,
m/s
humid.,
%
clouds,
%
prec.,
mm/h
press.,
hPa
HPBL,
m
19 september, sun
sun1900:00+8e51055100 0.0 1022395
03:00+8ese51058100 0.0 1022468
06:00+7e51169100 0.3 1021433
09:00+7ese71272100 0.4 1021418
12:00+8e71172100 0.4 1021466
15:00+11ese81361100 0.6 1020757
18:00+8e81476100 1.6 1019499
21:00+8ese81781100 3.1 1018593
20 september, mon
mon2000:00+8ese112083100 6.8 1016692
03:00+7ese101986100 10.1 1015794
06:00+7ese101892100 6.1 1014787
09:00+7ese91792100 10.5 1014849
12:00+7ese101788100 1.9 1015728
15:00+8se91682100 2.3 1014734
18:00+8ese91679100 0.0 1014728
21:00+8ese81589100 1.0 1014634
21 september, tue
tue2100:00+9se7138875 0.4 1015497
03:00+8se6129193 0.4 1014410
06:00+8ese71293100 0.3 1014363
09:00+9ese698769 1.1 1014384
12:00+11se4680100 0.1 1014523
15:00+15se2471100 0.1 1012898
18:00+13wnw1183100 0.4 101213
21:00+11wsw228743 0.8 101249
22 september, wed
wed2200:00+10wsw3489100 0.1 101383
03:00+9w239289 0.1 101369
06:00+9wsw119097 0.0 101312
09:00+12nne107192 0.1 1014317
12:00+15se225668 0.0 10141135
15:00+14ssw2360100 0.6 1015733
18:00+12nw117362 0.2 101510
21:00+10n117882 0.2 101610
23 september, thu
thu2300:00+11ne1178100 0.0 101618
03:00+11sse1183100 0.1 101521
06:00+10sw118373 0.1 101511
09:00+12se0173100 0.1 101597
12:00+14ssw2361100 0.0 1015580
15:00+16sse3546100 0.0 10141810
18:00+14e3454100 0.0 101458
21:00+12se51184100 0.1 1013322